BIROS

Last updated on Sun Nov 16 2025 00:03:20 GMT+0000 (Coordinated Universal Time)

1 41604U 16040F 25319.32283274 .00127255 00000+0 65743-3 0 9996 2 41604 97.0739 349.8550 0000717 301.7790 58.3409 15.80751346524389
UTC large
Height (km)
Speed (km/s)
/
Latitude / Longitude
Inclination (degrees)
Orbital Period (minutes)
Azimuth
Elevation
Range (km)
Doppler Factor

Next 0 passes for location: London (51.5072 / 0.1276)

Sorry there are no passes over London.